Location: Unspecified
(0.0000°N, 0.0000°E)
Time: 14:05:46
(UTC+00:00)

A-11 Canister half - Visible Passes

Search period start: 13 July 2025 00:00
Search period end: 23 July 2025 00:00
Orbit: 1514 x 1685 km, 47.2° (Epoch: 12 July)

Date Brightness Start Highest point End Pass type
(mag) Time Alt. Az. Time Alt. Az. Time Alt. Az.
13 Jul 9.7 04:48:05 10° SSW 04:57:08 49° SE 05:06:28 10° ENE visible
13 Jul 10.9 19:48:58 10° WSW 19:53:49 15° SW 19:58:37 10° SSW visible
14 Jul 9.8 04:26:35 15° SSW 04:34:07 45° SE 04:43:15 10° ENE visible
14 Jul 10.9 19:25:09 10° W 19:30:43 17° SW 19:36:15 10° S visible
15 Jul 9.9 04:05:19 21° S 04:11:05 41° SE 04:20:01 10° ENE visible
15 Jul 10.9 19:01:27 10° W 19:07:38 19° SW 19:13:45 10° S visible
16 Jul 9.9 03:44:04 27° S 03:48:03 37° SE 03:56:44 10° ENE visible
16 Jul 10.8 18:37:49 10° W 18:44:33 21° SW 18:51:12 10° S visible
17 Jul 10.0 03:22:48 31° SSE 03:25:01 34° SE 03:33:26 10° ENE visible
17 Jul 9.4 05:21:02 11° WSW 05:29:44 51° NW 05:39:11 10° NNE visible
18 Jul 10.1 03:01:32 31° SE 03:01:59 31° SE 03:10:05 10° ENE visible
18 Jul 9.2 04:59:46 19° WSW 05:06:42 56° NW 05:16:15 10° NNE visible
19 Jul 10.3 02:40:16 27° ESE 02:40:16 27° ESE 02:46:43 10° ENE visible
19 Jul 9.1 04:38:29 29° WSW 04:43:40 61° NW 04:53:17 10° NNE visible
20 Jul 10.6 02:18:58 22° ESE 02:18:58 22° ESE 02:23:18 10° E visible
20 Jul 9.0 04:17:11 43° WSW 04:20:39 66° NW 04:30:18 10° NNE visible
21 Jul 10.9 01:57:38 16° E 01:57:38 16° E 01:59:50 10° E visible
21 Jul 8.9 03:55:51 60° WSW 03:57:37 72° NW 04:07:19 10° NNE visible
22 Jul 11.2 01:36:16 10° E 01:36:16 10° E 01:36:19 10° E visible
22 Jul 8.8 03:34:29 78° WNW 03:34:37 78° NW 03:44:18 10° NE visible
22 Jul 10.6 05:35:17 10° WNW 05:39:56 14° NW 05:44:41 10° NNW visible
